Tracking 21516 objects as of 1-Oct-2020
HD Live streaming from Space Station
objects crossing your sky now

BLOCK DM-SL R/B

Track BLOCK DM-SL R/B now!


NORAD ID: 36107
Int'l Code: 2009-067B
Perigee: 10,053.3 km
Apogee: 35,694.3 km
Inclination: 11.8 °
Period: 829.5 minutes
Semi major axis: 29244 km
RCS: 12.5893 m2 (large)
Launch date: November 30, 2009
Source: Commonwealth of Independent States (former USSR) (CIS)
Launch site: TYURATAM MISSILE AND SPACE COMPLEX (TTMTR)

Note: This is a ROCKET BODY
aabbcc
Your satellite tracking list
Your tracking list is empty




NASA's NSSDC Master Catalog

Two Line Element Set (TLE):
1 36107U 09067B   20274.48257326 -.00000094  00000-0  00000+0 0  9994
2 36107  11.8024  91.5087 4383854 225.5692 101.7276  1.73592051 68709
Source of the keplerian elements: AFSPC